Volver al catálogo

DASH 1

ActivoCienciaPO
NORAD 589·PAYLOAD·🇺🇸 United States

Lanzado May 9, 1963 desde Vandenberg Space Force Base

Loading…

Próximos Pases (próximas 24 horas)

TLE

ActualizadoSource: Space-Track

Época: Sep 14, 2026, 05:20 UTC

1 00589U 63014D   26257.22290934  .00000001  00000-0 -10892-2 0  9993
2 00589  87.3617 182.1814 0046790 194.3352 165.6177  8.65626584  1266

Sigue DASH 1 en tiempo real con AllMySat

Download on the App Store